Regional Weather Roundup
Issued by NWS

Home | Current Version | Previous Version | Graphics & Text | Print | Product List | Glossary Off
Versions: 1 2 3 4 5 6 7 8 9 10 11 12 13 14 15 16 17 18 19 20 21 22 23 24 25 26 27 28 29 30 31 32 33 34 35 36 37 38 39 40 41 42 43 44 45 46 47 48 49 50

000
ASUS43 KMPX 291710
RWRMN
WEATHER ROUNDUP FOR MINNESOTA
NATIONAL WEATHER SERVICE TWIN CITIES/CHANHASSEN MN
1200 PM CDT SUN MAR 29 2015


NOTE: "FAIR" INDICATES FEW OR NO CLOUDS BELOW 12,000 FEET WITH NO
SIGNIFICANT WEATHER AND/OR OBSTRUCTIONS TO VISIBILITY. N/A MEANS
CURRENT SKY AND/OR WEATHER CONDITIONS ARE NOT AVAILABLE.

MNZ060>063-068>070-291800-
   Twin Cities Metro

CITY           SKY/WX    TMP DP  RH WIND       PRES   REMARKS
TWIN CITIES    LGT RAIN  43  38  82 W32G44    29.60R
ST PAUL        LGT RAIN  45  40  82 W25G37    29.59R
CRYSTAL        LGT RAIN  42  37  82 W23G35    29.60R
BLAINE         CLOUDY    46  45  93 W22G29    29.58R
LAKEVILLE      RAIN      41  37  87 W32G44    29.61R
EDEN PRAIRIE   LGT RAIN  40  35  83 W28G41    29.62R
SOUTH ST PAUL  CLOUDY    46  42  88 W23G32    29.58R FOG
LAKE ELMO      LGT RAIN  45  41  87 W13G20    29.57R
$$
MNZ001>005-007-008-013>017-022>024-027-028-291800-
   Northwest Minnesota

CITY           SKY/WX    TMP DP  RH WIND       PRES   REMARKS
BEMIDJI        CLOUDY    39  33  76 NW31G38   29.68R
HALLOCK        CLOUDY    43  37  81 N18G24    29.83R
ROSEAU         PTSUNNY   39  36  87 NW28G37   29.73R
WARROAD        PTSUNNY   37  34  87 NW23G39   29.71R
THIEF RVR FALL CLOUDY    39  34  81 NW29G35   29.79R
CROOKSTON      PTSUNNY   43  36  75 N29G38    29.83R
FOSSTON        PTSUNNY   37  34  87 NW24G33   29.77R
DETROIT LAKES  PTSUNNY   39  34  81 N29G46    29.78R
MOORHEAD       MOSUNNY   46  41  81 N25G40    29.84R
PARK RAPIDS    PTSUNNY   43  32  65 NW24G39   29.69R
MAHNOMEN       CLOUDY    38  33  80 NW35G43   29.79R
$$
MNZ006-009>011-018-025>026-291800-
   North Central Minnesota

CITY           SKY/WX    TMP DP  RH WIND       PRES   REMARKS
BAUDETTE       CLOUDY    37  32  82 NW28G36   29.65R
FLAG ISLAND    CLOUDY    36  30  80 NW29G35   29.67R
INTL FALLS     CLOUDY    37  33  85 NW17G31   29.56R
WASKISH        CLOUDY    36  34  93 NW20G32   29.66R
BIG FORK       LGT RAIN  36  34  93 NW12G23   29.59R
LONGVILLE      CLOUDY    37  34  87 NW13G23   29.63R
GRAND RAPIDS   CLOUDY    37  30  75 NW31G41   29.56R
ORR            DRIZZLE   36  32  87 NW14G24   29.49R
COOK           DRIZZLE   36  34  93 NW12G22   29.51R
WALKER         CLOUDY    38  32  78 NW17G28   29.66R
$$
MNZ012-019>021-037-291800-
   Northeast Minnesota

CITY           SKY/WX    TMP DP  RH WIND       PRES   REMARKS
DULUTH         LGT SNOW  34  31  88 W13       29.47R VSB 1   WCI  25
ELY            FLURRIES  34  32  93 NW13      29.45R WCI  25
HIBBING        LGT RAIN  36  32  85 NW22G30   29.50R
EVELETH        MIX PCPN  34  34 100 NW9       29.50R WCI  26
DULUTH HARBOR  MIX PCPN  34  32  93 CALM      29.51R
TWO HARBORS    MIX PCPN  37  32  81 SW8       29.45S
SILVER BAY     MIX PCPN  36  34  93 SW5       29.43F
GRAND MARAIS     N/A     33  32  96 W9        29.44F WCI  25
G MARAIS ARPRT LGT SNOW  30  27  86 S7        29.40S WCI  23
$$
MNZ029>031-032-039>041-046>048-054>057-064-291800-
   West Central Minnesota

CITY           SKY/WX    TMP DP  RH WIND       PRES   REMARKS
FERGUS FALLS   MOSUNNY   45  34  65 N31G39    29.84R
WHEATON        MOSUNNY   46  34  61 NW32G38   29.87R
MORRIS         MOSUNNY   46  36  66 NW37G46   29.81R
ALEXANDRIA     PTSUNNY   40  32  73 NW30G44   29.76R
ELBOW LAKE     CLOUDY    42  34  72 NW30G41   29.81R
WADENA         CLOUDY    37  34  87 NW24G33   29.73R
GLENWOOD       MOSUNNY   39  36  87 NW31G44   29.77R
APPLETON       MOSUNNY   48  36  61 NW33G41   29.84R
BENSON         PTSUNNY   46  37  71 N31G38    29.80R
ORTONVILLE     MOSUNNY   48  34  57 NW31G44   29.85R
MADISON        MOSUNNY   48  34  57 N39G47    29.85R
WILLMAR        FAIR      45  36  70 NW40G49   29.78R
$$
MNZ033>034-036-042>043-049>051-058-059-291800-
   Central Minnesota

CITY           SKY/WX    TMP DP  RH WIND       PRES   REMARKS
ST CLOUD       CLOUDY    41  37  86 NW24G37   29.64R
SAUK CENTRE    CLOUDY    42  34  75 NW31G45   29.71R
PAYNESVILLE    CLOUDY    39  35  84 W29G36    29.73R
AITKIN         CLOUDY    41  36  81 NW16G30   29.58R
PINE RIVER     PTSUNNY   41  34  75 NW26G37   29.67R
BRAINERD       CLOUDY    41  35  79 NW28G35   29.63R
STAPLES        PTSUNNY   43  36  75 NW24G39   29.68R
LONG PRAIRIE   CLOUDY    41  34  75 W24G37    29.71R
LITTLE FALLS   CLOUDY    41  36  81 W23G30    29.65R
LITCHFIELD     CLOUDY    43  39  87 NW25G41   29.71R
BUFFALO        CLOUDY    37  34  87 W16G25    29.66R
MAPLE LAKE     CLOUDY    40  38  92 W20G26    29.67R
$$
MNZ037-044-045-052-053-291800-
   East Central Minnesota

CITY           SKY/WX    TMP DP  RH WIND       PRES   REMARKS
PRINCETON      LGT RAIN  39  37  93 W14       29.61R
MORA           LGT RAIN  34  32  93 W9G18     29.59R WCI  26
CAMBRIDGE      HVY RAIN  41  34  75 NW17G33   29.58R
RUSH CITY      LGT RAIN  39  36  87 NW17G25   29.56R
MOOSE LAKE     LGT RAIN  34  34 100 CALM      29.52R
HINCKLEY       RAIN      36  34  93 W8G17     29.56R
CLOQUET        LGT SNOW  34  32  93 W10G16    29.50R WCI  26
MCGREGOR       CLOUDY    37  36  93 NW18G30   29.56R
$$
MNZ071>073-080-081-089-090-097-098-291800-
   Southwest Minnesota

CITY           SKY/WX    TMP DP  RH WIND       PRES   REMARKS
MONTEVIDEO     PTSUNNY   46  37  71 N32G46    29.82R
GRANITE FALLS  PTSUNNY   45  38  75 NW35G44   29.83R
CANBY          MOSUNNY   48  36  63 NW28G41   29.87R
MARSHALL       CLOUDY    46  32  57 N37G49    29.84R
REDWOOD FALLS  CLOUDY    46  36  68 NW25G40   29.78R
OLIVIA         CLOUDY    41  36  81 NW36G43   29.76R
PIPESTONE      PTSUNNY   46  36  66 N30G46    29.88R
WINDOM         CLOUDY    46  37  71 NW36G47   29.80R
WORTHINGTON    CLOUDY   N/A N/A N/A NW38G48   29.84R
JACKSON        CLOUDY    46  36  66 NW39G45   29.81R
TRACY          PTSUNNY   48  36  63 NW33G47   29.85R
SLAYTON        CLOUDY    47  35  62 NW35G45   29.84R
$$
MNZ065>067-074>077-082>085-091>093-291800-
   South Central Minnesota

CITY           SKY/WX    TMP DP  RH WIND       PRES   REMARKS
MANKATO        CLOUDY    45  36  70 NW24G39   29.71R
NEW ULM        CLOUDY    45  36  70 NW36G44   29.73R
ST JAMES       CLOUDY    46  37  71 W37G46    29.78R
FAIRMONT       CLOUDY    48  36  61 NW25G39   29.77R
GLENCOE        CLOUDY    42  39  90 W29G37    29.68R
FARIBAULT      DRIZZLE   43  37  81 W29G39    29.66R
OWATONNA       CLOUDY    45  37  76 W29G41    29.68R
WASECA         CLOUDY    45  37  76 W32G40    29.70R
ALBERT LEA     CLOUDY    50  41  71 W15G33    29.70R
$$
MNZ078>079-086>088-094>096-291800-
   Southeast Minnesota

CITY           SKY/WX    TMP DP  RH WIND       PRES   REMARKS
ROCHESTER      PTSUNNY   40  36  86 SW14      29.65S
RED WING       CLOUDY    46  37  71 W10       29.58S
STANTON        RAIN      45  39  79 W31G38    29.61R
DODGE CENTER   CLOUDY    45  39  81 W24G30    29.63S
WINONA         CLOUDY    43  34  70 SW15G23   29.64F
AUSTIN         CLOUDY    50  39  66 W21G26    29.67R
PRESTON        MOSUNNY   41  36  81 SW17      29.66F
$$
ABBREVIATIONS USED IN REMARKS
   TC - TEMPERATURES IN CELSIUS
  WCI - WIND CHILL INDEX
   HX - HEAT INDEX
  VSB - VISIBILITY
$$


USA.gov is the U.S. government's official web portal to all federal, state and local government web resources and services.